Location: Abraham Lincoln Continuation High School
(33.9711°N, 117.3662°W)
Time: 10:34:24
(UTC+00:00)

Cosmos 1680 Rocket - Pass Details

Date: 23 January 2021
Orbit: 761 x 780 km, 74.1° (Epoch: 08 March)

Event Time Altitude Azimuth Distance (km) Brightness Sun altitude
Rises 01:30:02 0° 3° (N) 3,237 6.5 -4.6°
Reaches altitude 10° 01:33:35 10° 28° (NNE) 2,303 5.5 -5.3°
Maximum altitude 01:36:22 14° 61° (ENE) 2,007 5.0 -5.8°
Drops below altitude 10° 01:39:08 10° 93° (E) 2,292 5.4 -6.3°
Sets 01:42:38 0° 118° (ESE) 3,211 6.3 -7.0°
